{"data":{"norad_id":66995,"epoch":"2026-05-25T04:15:43.908192Z","epoch_age_seconds":60485,"freshness":"FRESH","line1":"1 66995U 25292C   26145.17759153  .00004161  00000+0  28615-3 0  9997","line2":"2 66995  97.6308 221.1410 0016253  78.3283 281.9766 15.06362011 24986","mean_motion":15.06362011,"eccentricity":0.0016253,"inclination_deg":97.6308,"raan_deg":221.141,"arg_perigee_deg":78.3283,"mean_anomaly_deg":281.9766,"bstar":0.00028615,"rev_number":2498,"period_min":95.594550943571,"perigee_km":536.07203294855,"apogee_km":558.58394944894,"semimajor_km":6925.4649911987,"source":"CELESTRAK","updated_at":"2026-05-25T13:38:06.638134Z"}}